Time,TemperatureF,DewpointF,PressureIn,WindDirection,WindDirectionDegrees,WindSpeedMPH,WindSpeedGustMPH,Humidity,HourlyPrecipIn,Conditions,Clouds,dailyrainin,SolarRadiationWatts/m^2,SoftwareType,DateUTC
2013-04-07 00:02:00,36.0,35.0,-100.00,East,86,1.0,13.0,97,0.17,,,1.38,0.000000,,2013-04-07 07:02:00,
2013-04-07 00:11:00,36.0,35.0,-100.00,East,88,4.0,14.0,97,0.08,,,1.34,0.000000,,2013-04-07 07:11:00,
2013-04-07 00:33:00,36.0,35.0,-100.00,East,88,4.0,14.0,97,0.08,,,1.34,0.000000,,2013-04-07 07:33:00,
2013-04-07 00:42:00,36.0,35.0,-100.00,East,88,4.0,14.0,97,0.08,,,1.34,0.000000,,2013-04-07 07:42:00,
2013-04-07 00:52:00,36.0,35.0,-100.00,East,88,4.0,14.0,97,0.08,,,1.34,0.000000,,2013-04-07 07:52:00,
2013-04-07 01:02:00,36.0,35.0,-100.00,East,88,4.0,14.0,97,0.08,,,1.34,0.000000,,2013-04-07 08:02:00,
2013-04-07 01:11:00,37.0,36.0,-100.00,East,92,5.0,16.0,98,0.13,,,1.46,0.000000,,2013-04-07 08:11:00,
2013-04-07 01:33:00,37.0,36.0,-100.00,East,92,5.0,16.0,98,0.13,,,1.46,0.000000,,2013-04-07 08:33:00,
2013-04-07 01:43:00,37.0,36.0,-100.00,East,92,5.0,16.0,98,0.13,,,1.46,0.000000,,2013-04-07 08:43:00,
2013-04-07 01:53:00,37.0,36.0,-100.00,East,92,5.0,16.0,98,0.13,,,1.46,0.000000,,2013-04-07 08:53:00,
2013-04-07 02:02:00,37.0,36.0,-100.00,East,92,5.0,16.0,98,0.13,,,1.46,0.000000,,2013-04-07 09:02:00,
2013-04-07 02:11:00,36.0,35.0,-100.00,East,92,6.0,23.0,98,0.02,,,1.46,0.000000,,2013-04-07 09:11:00,
2013-04-07 02:34:00,36.0,35.0,-100.00,East,92,6.0,23.0,98,0.02,,,1.46,0.000000,,2013-04-07 09:34:00,
2013-04-07 02:44:00,36.0,35.0,-100.00,East,92,6.0,23.0,98,0.02,,,1.46,0.000000,,2013-04-07 09:44:00,
2013-04-07 02:53:00,36.0,35.0,-100.00,East,92,6.0,23.0,98,0.02,,,1.46,0.000000,,2013-04-07 09:53:00,
2013-04-07 03:03:00,36.0,35.0,-100.00,East,92,6.0,23.0,98,0.02,,,1.46,0.000000,,2013-04-07 10:03:00,
2013-04-07 03:11:00,38.0,37.0,-100.00,East,80,7.0,19.0,98,0.01,,,1.33,0.000000,,2013-04-07 10:11:00,
2013-04-07 03:43:00,38.0,37.0,-100.00,East,80,7.0,19.0,98,0.01,,,1.33,0.000000,,2013-04-07 10:43:00,
2013-04-07 03:53:00,38.0,37.0,-100.00,East,80,7.0,19.0,98,0.01,,,1.33,0.000000,,2013-04-07 10:53:00,
2013-04-07 04:02:00,38.0,37.0,-100.00,East,80,7.0,19.0,98,0.01,,,1.33,0.000000,,2013-04-07 11:02:00,
2013-04-07 04:11:00,37.0,36.0,-100.00,East,82,6.0,17.0,98,0.05,,,1.10,0.000000,,2013-04-07 11:11:00,
2013-04-07 04:33:00,37.0,36.0,-100.00,East,82,6.0,17.0,98,0.05,,,1.10,0.000000,,2013-04-07 11:33:00,
2013-04-07 04:43:00,37.0,36.0,-100.00,East,82,6.0,17.0,98,0.05,,,1.10,0.000000,,2013-04-07 11:43:00,
2013-04-07 04:53:00,37.0,36.0,-100.00,East,82,6.0,17.0,98,0.05,,,1.10,0.000000,,2013-04-07 11:53:00,
2013-04-07 05:02:00,37.0,36.0,-100.00,East,82,6.0,17.0,98,0.05,,,1.10,0.000000,,2013-04-07 12:02:00,
2013-04-07 05:11:00,37.0,36.0,-100.00,East,87,6.0,17.0,98,0.02,,,1.05,0.000000,,2013-04-07 12:11:00,
2013-04-07 05:34:00,37.0,36.0,-100.00,East,87,6.0,17.0,98,0.02,,,1.05,0.000000,,2013-04-07 12:34:00,
2013-04-07 05:43:00,37.0,36.0,-100.00,East,87,6.0,17.0,98,0.02,,,1.05,0.000000,,2013-04-07 12:43:00,
2013-04-07 05:53:00,37.0,36.0,-100.00,East,87,6.0,17.0,98,0.02,,,1.05,0.000000,,2013-04-07 12:53:00,
2013-04-07 06:02:00,37.0,36.0,-100.00,East,87,6.0,17.0,98,0.02,,,1.05,0.000000,,2013-04-07 13:02:00,
2013-04-07 06:11:00,39.0,38.0,-100.00,ENE,72,5.0,16.0,98,0.11,,,1.16,0.000000,,2013-04-07 13:11:00,
2013-04-07 06:33:00,39.0,38.0,-100.00,ENE,72,5.0,16.0,98,0.11,,,1.16,0.000000,,2013-04-07 13:33:00,
2013-04-07 06:43:00,39.0,38.0,-100.00,ENE,72,5.0,16.0,98,0.11,,,1.16,0.000000,,2013-04-07 13:43:00,
2013-04-07 06:53:00,39.0,38.0,-100.00,ENE,72,5.0,16.0,98,0.11,,,1.16,0.000000,,2013-04-07 13:53:00,
2013-04-07 07:02:00,39.0,38.0,-100.00,ENE,72,5.0,16.0,98,0.11,,,1.16,0.000000,,2013-04-07 14:02:00,
2013-04-07 07:11:00,39.0,38.0,-100.00,SSE,162,2.0,8.0,98,0.35,,,1.48,0.000000,,2013-04-07 14:11:00,
2013-04-07 07:33:00,39.0,38.0,-100.00,SSE,162,2.0,8.0,98,0.35,,,1.48,0.000000,,2013-04-07 14:33:00,
2013-04-07 07:44:00,39.0,38.0,-100.00,SSE,162,2.0,8.0,98,0.35,,,1.48,0.000000,,2013-04-07 14:44:00,
2013-04-07 07:53:00,39.0,38.0,-100.00,SSE,162,2.0,8.0,98,0.35,,,1.48,0.000000,,2013-04-07 14:53:00,
2013-04-07 08:02:00,39.0,38.0,-100.00,SSE,162,2.0,8.0,98,0.35,,,1.48,0.000000,,2013-04-07 15:02:00,
2013-04-07 08:11:00,37.0,36.0,-100.00,South,172,5.0,19.0,98,0.01,,,1.48,19.000000,,2013-04-07 15:11:00,
2013-04-07 08:35:00,37.0,36.0,-100.00,South,172,5.0,19.0,98,0.01,,,1.48,19.000000,,2013-04-07 15:35:00,
2013-04-07 08:45:00,37.0,36.0,-100.00,South,172,5.0,19.0,98,0.01,,,1.48,19.000000,,2013-04-07 15:45:00,
2013-04-07 08:54:00,37.0,36.0,-100.00,South,172,5.0,19.0,98,0.01,,,1.48,19.000000,,2013-04-07 15:54:00,
2013-04-07 09:03:00,37.0,36.0,-100.00,South,172,5.0,19.0,98,0.01,,,1.48,19.000000,,2013-04-07 16:03:00,
2013-04-07 09:11:00,34.0,34.0,-100.00,South,186,7.0,22.0,98,0.14,,,1.62,38.000000,,2013-04-07 16:11:00,
2013-04-07 09:54:00,34.0,34.0,-100.00,South,186,7.0,22.0,98,0.14,,,1.62,38.000000,,2013-04-07 16:54:00,
2013-04-07 10:03:00,34.0,34.0,-100.00,South,186,7.0,22.0,98,0.14,,,1.62,38.000000,,2013-04-07 17:03:00,
2013-04-07 10:11:00,34.0,34.0,-100.00,South,189,2.0,9.0,98,0.19,,,1.81,65.000000,,2013-04-07 17:11:00,
2013-04-07 10:43:00,34.0,34.0,-100.00,South,189,2.0,9.0,98,0.19,,,1.81,65.000000,,2013-04-07 17:43:00,
2013-04-07 10:53:00,34.0,34.0,-100.00,South,189,2.0,9.0,98,0.19,,,1.81,65.000000,,2013-04-07 17:53:00,
2013-04-07 11:02:00,34.0,34.0,-100.00,South,189,2.0,9.0,98,0.19,,,1.81,65.000000,,2013-04-07 18:02:00,
2013-04-07 11:11:00,35.0,34.0,-100.00,South,176,1.0,11.0,98,0.22,,,2.02,137.000000,,2013-04-07 18:11:00,
2013-04-07 11:43:00,35.0,34.0,-100.00,South,176,1.0,11.0,98,0.22,,,2.02,137.000000,,2013-04-07 18:43:00,
2013-04-07 11:52:00,35.0,34.0,-100.00,South,176,1.0,11.0,98,0.22,,,2.02,137.000000,,2013-04-07 18:52:00,
2013-04-07 12:02:00,35.0,34.0,-100.00,South,176,1.0,11.0,98,0.22,,,2.02,137.000000,,2013-04-07 19:02:00,
2013-04-07 12:11:00,38.0,37.0,-100.00,SSE,155,4.0,12.0,97,0.11,,,2.13,153.000000,,2013-04-07 19:11:00,
2013-04-07 12:43:00,38.0,37.0,-100.00,SSE,155,4.0,12.0,97,0.11,,,2.13,153.000000,,2013-04-07 19:43:00,
2013-04-07 12:53:00,38.0,37.0,-100.00,SSE,155,4.0,12.0,97,0.11,,,2.13,153.000000,,2013-04-07 19:53:00,
2013-04-07 13:02:00,38.0,37.0,-100.00,SSE,155,4.0,12.0,97,0.11,,,2.13,153.000000,,2013-04-07 20:02:00,
2013-04-07 13:11:00,38.0,37.0,-100.00,South,176,3.0,12.0,97,0.04,,,2.17,164.000000,,2013-04-07 20:11:00,
2013-04-07 13:44:00,38.0,37.0,-100.00,South,176,3.0,12.0,97,0.04,,,2.17,164.000000,,2013-04-07 20:44:00,
2013-04-07 13:53:00,38.0,37.0,-100.00,South,176,3.0,12.0,97,0.04,,,2.17,164.000000,,2013-04-07 20:53:00,
2013-04-07 14:02:00,38.0,37.0,-100.00,South,176,3.0,12.0,97,0.04,,,2.17,164.000000,,2013-04-07 21:02:00,
2013-04-07 14:11:00,40.0,38.0,-100.00,South,177,2.0,10.0,93,0.01,,,2.14,228.000000,,2013-04-07 21:11:00,
2013-04-07 14:35:00,40.0,38.0,-100.00,South,177,2.0,10.0,93,0.01,,,2.14,228.000000,,2013-04-07 21:35:00,
2013-04-07 14:45:00,40.0,38.0,-100.00,South,177,2.0,10.0,93,0.01,,,2.14,228.000000,,2013-04-07 21:45:00,
2013-04-07 14:54:00,40.0,38.0,-100.00,South,177,2.0,10.0,93,0.01,,,2.14,228.000000,,2013-04-07 21:54:00,
2013-04-07 15:03:00,40.0,38.0,-100.00,South,177,2.0,10.0,93,0.01,,,2.14,228.000000,,2013-04-07 22:03:00,
2013-04-07 15:11:00,37.0,36.0,-100.00,SE,144,1.0,9.0,96,0.32,,,2.45,81.000000,,2013-04-07 22:11:00,
2013-04-07 15:44:00,37.0,36.0,-100.00,SE,144,1.0,9.0,96,0.32,,,2.45,81.000000,,2013-04-07 22:44:00,
2013-04-07 15:53:00,37.0,36.0,-100.00,SE,144,1.0,9.0,96,0.32,,,2.45,81.000000,,2013-04-07 22:53:00,
2013-04-07 16:03:00,37.0,36.0,-100.00,SE,144,1.0,9.0,96,0.32,,,2.45,81.000000,,2013-04-07 23:03:00,
2013-04-07 16:11:00,36.0,35.0,-100.00,SSW,198,0.0,10.0,95,0.37,,,2.81,36.000000,,2013-04-07 23:11:00,
2013-04-07 16:43:00,36.0,35.0,-100.00,SSW,198,0.0,10.0,95,0.37,,,2.81,36.000000,,2013-04-07 23:43:00,
2013-04-07 16:52:00,36.0,35.0,-100.00,SSW,198,0.0,10.0,95,0.37,,,2.81,36.000000,,2013-04-07 23:52:00,
2013-04-07 17:02:00,36.0,35.0,-100.00,SSW,198,0.0,10.0,95,0.37,,,2.81,36.000000,,2013-04-08 00:02:00,
2013-04-07 17:11:00,34.0,33.0,-100.00,South,173,1.0,11.0,97,0.55,,,-99.99,24.000000,,2013-04-08 00:11:00,
2013-04-07 17:33:00,34.0,33.0,-100.00,South,173,1.0,11.0,97,0.55,,,-99.99,24.000000,,2013-04-08 00:33:00,
2013-04-07 17:43:00,34.0,33.0,-100.00,South,173,1.0,11.0,97,0.55,,,-99.99,24.000000,,2013-04-08 00:43:00,
2013-04-07 17:52:00,34.0,33.0,-100.00,South,173,1.0,11.0,97,0.55,,,-99.99,24.000000,,2013-04-08 00:52:00,
2013-04-07 18:02:00,34.0,33.0,-100.00,South,173,1.0,11.0,97,0.55,,,-99.99,24.000000,,2013-04-08 01:02:00,
2013-04-07 18:11:00,33.0,32.0,-100.00,SSE,164,1.0,8.0,97,0.18,,,3.49,13.000000,,2013-04-08 01:11:00,
2013-04-07 18:44:00,33.0,32.0,-100.00,SSE,164,1.0,8.0,97,0.18,,,3.49,13.000000,,2013-04-08 01:44:00,
2013-04-07 18:55:00,33.0,32.0,-100.00,SSE,164,1.0,8.0,97,0.18,,,3.49,13.000000,,2013-04-08 01:55:00,
2013-04-07 19:02:00,33.0,32.0,-100.00,SSE,164,1.0,8.0,97,0.18,,,3.49,13.000000,,2013-04-08 02:02:00,
2013-04-07 19:11:00,33.0,32.0,-100.00,SE,133,0.0,6.0,98,0.13,,,3.59,7.000000,,2013-04-08 02:11:00,
2013-04-07 19:48:00,33.0,32.0,-100.00,SE,133,0.0,6.0,98,0.13,,,3.59,7.000000,,2013-04-08 02:48:00,
2013-04-07 19:53:00,33.0,32.0,-100.00,SE,133,0.0,6.0,98,0.13,,,3.59,7.000000,,2013-04-08 02:53:00,
2013-04-07 20:05:00,33.0,32.0,-100.00,SE,133,0.0,6.0,98,0.13,,,3.59,7.000000,,2013-04-08 03:05:00,
2013-04-07 20:11:00,33.0,32.0,-100.00,East,97,0.0,3.0,98,0.03,,,3.52,4.000000,,2013-04-08 03:11:00,
2013-04-07 20:55:00,33.0,32.0,-100.00,East,97,0.0,3.0,98,0.03,,,3.52,4.000000,,2013-04-08 03:55:00,
2013-04-07 21:02:00,33.0,32.0,-100.00,East,97,0.0,3.0,98,0.03,,,3.52,4.000000,,2013-04-08 04:02:00,
2013-04-07 21:11:00,33.0,32.0,-100.00,ESE,108,0.0,0.0,98,0.02,,,3.43,0.000000,,2013-04-08 04:11:00,
2013-04-07 21:34:00,33.0,32.0,-100.00,ESE,108,0.0,0.0,98,0.02,,,3.43,0.000000,,2013-04-08 04:34:00,
2013-04-07 21:44:00,33.0,32.0,-100.00,ESE,108,0.0,0.0,98,0.02,,,3.43,0.000000,,2013-04-08 04:44:00,
2013-04-07 21:52:00,33.0,32.0,-100.00,ESE,108,0.0,0.0,98,0.02,,,3.43,0.000000,,2013-04-08 04:52:00,
2013-04-07 22:02:00,33.0,32.0,-100.00,ESE,108,0.0,0.0,98,0.02,,,3.43,0.000000,,2013-04-08 05:02:00,
2013-04-07 22:11:00,34.0,34.0,-100.00,ESE,116,0.0,6.0,98,0.05,,,3.31,0.000000,,2013-04-08 05:11:00,
2013-04-07 22:42:00,34.0,34.0,-100.00,ESE,116,0.0,6.0,98,0.05,,,3.31,0.000000,,2013-04-08 05:42:00,
2013-04-07 22:52:00,34.0,34.0,-100.00,ESE,116,0.0,6.0,98,0.05,,,3.31,0.000000,,2013-04-08 05:52:00,
2013-04-07 23:02:00,34.0,34.0,-100.00,ESE,116,0.0,6.0,98,0.05,,,3.31,0.000000,,2013-04-08 06:02:00,
2013-04-07 23:11:00,35.0,34.0,-100.00,SE,128,0.0,6.0,98,0.17,,,3.31,0.000000,,2013-04-08 06:11:00,
2013-04-07 23:43:00,35.0,34.0,-100.00,SE,128,0.0,6.0,98,0.17,,,3.31,0.000000,,2013-04-08 06:43:00,
2013-04-07 23:52:00,35.0,34.0,-100.00,SE,128,0.0,6.0,98,0.17,,,3.31,0.000000,,2013-04-08 06:52:00,